[[{"header":{"parameterUnit":"m.s-1","parameterCategory":1,"la1":30.2991,"la2":30.254,"lo1":-89.0895,"lo2":-89.0444,"dy":0.0017,"dx":0.0017,"nx":28,"ny":28,"refTime":"2024-05-13T21:00:00:Z","depth":0,"parameterNumber":2,"parameterNumberName":"U-component_of_WINDS"},"data":[0,0,0,0,0,0,0,0,0,0,0,0,0,0,0,0,0,0,0,0,0,0,0,0,0,0,0,0,0,0,0,0,0,0,0,0,0,0,0,0,0,0,0,0,0,0,0,0,0,0,0,0,0,0,0,0,0,0,-4.4311,-4.4312,0,-4.4403,-4.4404,-4.4405,-4.4294,-4.429,-4.4286,-4.4282,-4.4376,-4.4382,-4.4388,0,0,0,0,0,0,0,0,0,0,0,0,0,-4.404,-4.4045,-4.4311,-4.4312,-4.4313,-4.4403,-4.4404,-4.4406,-4.4295,-4.429,-4.4285,-4.428,-4.4374,-4.4381,-4.4389,0,0,0,0,0,0,0,0,0,0,0,0,0,-4.4148,-4.4047,-4.4311,-4.4269,-4.4266,-4.4403,-4.4404,-4.4406,-4.4296,-4.4289,-4.4283,-4.4277,-4.4371,-4.438,-4.439,-4.4572,0,0,-4.4419,-4.4423,0,0,0,0,0,0,0,0,-4.4142,-4.4158,-4.4274,-4.4272,-4.4269,-4.4331,-4.4343,-4.4462,-4.4297,-4.4284,-4.4282,-4.4274,-4.4366,-4.4375,-4.4406,-4.4577,-4.4581,-4.442,-4.4425,-4.443,-4.4432,0,0,0,0,0,0,0,-4.4134,-4.4153,-4.4347,-4.4276,-4.4273,-4.4246,-4.4254,-4.4365,-4.4359,-4.4285,-4.4277,-4.429,-4.4363,-4.4397,-4.4408,-4.4582,-4.4419,-4.4428,-4.4434,-4.4437,-4.491,-4.4917,0,0,0,0,0,0,-4.4132,-4.4148,-4.4344,-4.435,-4.4189,-4.4256,-4.4265,-4.4317,-4.4357,-4.4357,-4.4295,-4.4284,-4.4384,-4.4397,-4.441,-4.4629,-4.4429,-4.4438,-4.4444,-4.4903,-4.4912,-4.4919,0,0,0,0,0,0,-4.4126,-4.415,-4.4341,-4.4247,-4.4269,-4.4267,-4.4326,-4.4322,-4.4356,-4.4364,-4.4363,-4.4331,-4.438,-4.4397,-4.4534,-4.463,-4.4443,-4.4451,-4.4895,-4.4906,-4.4915,-4.5066,0,0,0,0,0,0,-4.4119,-4.4149,-4.4218,-4.4249,-4.4275,-4.4463,-4.4332,-4.4329,-4.4373,-4.436,-4.4398,-4.4398,-4.4376,-4.452,-4.4543,-4.464,-4.4459,-4.4887,-4.49,-4.4912,-4.5052,-4.508,-4.5104,0,0,0,0,0,-4.411,-4.4256,-4.4222,-4.4246,-4.4361,-4.4468,-4.4483,-4.4455,-4.4381,-4.4451,-4.4457,-4.4397,-4.4616,-4.4535,-4.456,-4.4661,-4.488,-4.4896,-4.4911,-4.5041,-4.5075,-4.5103,0,0,0,0,0,0,-4.4235,-4.4259,-4.4222,-4.4382,-4.4425,-4.4449,-4.4536,-4.4491,-4.4554,-4.4539,-4.4501,-4.4511,-4.4657,-4.4672,-4.4582,-4.4842,-4.4736,-4.4757,-4.4826,-4.4858,-4.4884,-4.4877,-4.4467,0,0,0,0,0,-4.4282,-4.4367,-4.4383,-4.4524,-4.4547,-4.4539,-4.4584,-4.4559,-4.4601,-4.4618,-4.4633,-4.4676,-4.4755,-4.4807,-4.488,-4.5054,-4.5062,-4.5136,-4.5162,-4.5183,-4.5202,-4.5298,-4.5332,-4.497,-4.497,-4.4969,0,0,-4.4378,-4.4402,-4.4458,-4.455,-4.4579,-4.4669,-4.4554,-4.4653,-4.472,-4.4633,-4.4763,-4.4777,-4.4822,-4.4979,-4.5049,-4.4996,-4.5304,-4.5203,-4.522,-4.5227,-4.5317,-4.5351,-4.5382,-4.498,-4.4978,-4.4977,0,0,-4.4601,-4.4627,-4.4748,-4.478,-4.4827,-4.4821,-4.485,-4.4883,-4.4889,-4.5019,-4.4956,-4.5035,-4.5171,-4.5206,-4.5242,-4.5482,-4.543,-4.5507,-4.5641,-4.5735,-4.5764,-4.5789,-4.5876,-4.5907,-4.5525,-4.5526,-4.5526,0,-4.4715,-4.4848,-4.4815,-4.4921,-4.4963,-4.489,-4.5013,-4.5046,-4.5114,-4.5145,-4.5086,-4.5256,-4.5281,-4.5447,-4.5506,-4.5537,-4.557,-4.5502,-4.5762,-4.5787,-4.581,-4.5893,-4.5925,-4.5535,-4.5534,-4.5533,-4.5532,0,-4.4987,-4.5081,-4.5173,-4.5242,-4.5295,-4.5408,-4.5394,-4.5452,-4.5423,-4.5424,-4.5559,-4.5587,-4.5665,-4.5702,-4.5674,-4.5865,-4.5831,-4.5768,-4.5661,-4.5854,-4.5931,-4.5963,-4.5548,-4.5544,-4.5542,-4.554,0,0,-4.529,-4.5342,-4.5376,-4.5408,-4.5455,-4.5526,-4.5637,-4.5715,-4.5766,-4.5816,-4.5909,-4.6027,-4.5969,-4.601,-4.5986,-4.6068,-4.6259,-4.5994,-4.5995,-4.6044,-4.6473,-4.6522,-4.6559,-4.6224,-4.623,-4.6235,-4.647,0,-4.5515,-4.5707,-4.5682,-4.5867,-4.5954,-4.5887,-4.5983,-4.6024,-4.6028,-4.6103,-4.6106,-4.6192,-4.6108,-4.6133,-4.6211,-4.6219,-4.6344,-4.6201,-4.6312,-4.6316,-4.6304,-4.6599,-4.665,-4.687,-4.6499,-4.6504,-4.6508,0,-4.5801,-4.5864,-4.6058,-4.6094,-4.6129,-4.6217,-4.6287,-4.6359,-4.6404,-4.6401,-4.6449,-4.6411,-4.6523,-4.6415,-4.657,-4.6473,-4.6517,-4.6528,-4.6536,-4.6546,-4.6425,-4.6618,-4.6939,-4.6973,-4.6555,-4.6551,-4.6548,0,-4.6006,-4.6137,-4.6271,-4.63,-4.6345,-4.6408,-4.643,-4.6469,-4.6518,-4.6579,-4.6611,-4.6684,-4.6725,-4.6783,-4.6766,-4.6688,-4.6926,-4.6816,-4.6928,-4.6929,-4.6982,-4.6979,-4.7316,-4.7009,-4.7008,-4.7007,-4.7007,0,-4.6259,-4.6381,-4.6363,-4.6446,-4.6581,-4.6552,-4.6686,-4.67,-4.6735,-4.682,-4.6765,-4.6846,-4.6818,-4.6898,-4.6885,-4.7017,-4.7035,-4.7037,-4.7033,-4.7043,-4.7043,-4.7072,-4.7057,-4.7016,-4.7014,-4.7012,-4.7011,0,-4.651,-4.6503,-4.6644,-4.6676,-4.6687,-4.6786,-4.6813,-4.6891,-4.6892,-4.7,-4.7023,-4.7024,-4.7115,-4.7105,-4.7205,-4.7197,-4.7362,-4.7338,-4.7347,-4.7342,-4.7457,-4.7447,-4.7825,-4.7874,-4.7533,-4.7536,-4.7539,0,-4.6673,-4.6765,-4.6808,-4.6861,-4.6888,-4.6973,-4.7024,-4.6999,-4.7054,-4.7113,-4.7185,-4.7271,-4.7339,-4.7488,-4.7498,-4.7576,-4.7554,-4.7681,-4.7565,-4.7574,-4.7558,-4.7554,-4.7564,-4.7705,-4.7708,-4.7712,-4.7714,0,-4.6964,-4.6956,-4.703,-4.7106,-4.7167,-4.7225,-4.7276,-4.7323,-4.7304,-4.7368,-4.7461,-4.7514,-4.7618,-4.7705,-4.7779,-4.7802,-4.7757,-4.7751,-4.7781,-4.7793,-4.7796,-4.7798,-4.7411,-4.7742,-4.7739,-4.7737,-4.7736,-4.7735,-4.7176,-4.7256,-4.73,-4.7385,-4.7422,-4.7472,-4.7548,-4.7559,-4.7636,-4.772,-4.7701,-4.7807,-4.7851,-4.7946,-4.7976,-4.8059,-4.8013,-4.8056,-4.8068,-4.808,-4.8094,-4.7782,-4.8072,-4.8071,-4.8071,-4.807,-4.8069,0,-4.7466,-4.7491,-4.757,-4.7645,-4.7713,-4.7664,-4.772,-4.778,-4.7874,-4.792,-4.7988,-4.8096,-4.8181,-4.8199,-4.828,-4.8343,-4.8325,-4.8366,-4.8361,-4.8368,-4.813,-4.8096,-4.838,-4.838,-4.838,-4.838,-4.838,-4.8379,-4.7625,-4.7758,-4.7757,-4.7909,-4.7932,-4.8036,-4.8073,-4.8119,-4.8156,-4.8279,-4.835,-4.8361,-4.8396,-4.848,-4.8556,-4.8559,-4.8593,-4.8643,-4.8638,-4.8415,-4.8384,-4.8355,-4.8323,-4.865,-4.865,-4.887,-4.8872,-4.8873]},{"header":{"parameterUnit":"m.s-1","parameterCategory":1,"la1":30.2991,"la2":30.254,"lo1":-89.0895,"lo2":-89.0444,"dy":0.0017,"dx":0.0017,"nx":28,"ny":28,"refTime":"2024-05-13T21:00:00:Z","depth":0,"parameterNumber":3,"parameterNumberName":"V-component_of_WINDS"},"data":[0,0,0,0,0,0,0,0,0,0,0,0,0,0,0,0,0,0,0,0,0,0,0,0,0,0,0,0,0,0,0,0,0,0,0,0,0,0,0,0,0,0,0,0,0,0,0,0,0,0,0,0,0,0,0,0,0,0,6.3005,6.3006,0,6.3087,6.3087,6.3088,6.305,6.3048,6.3046,6.3044,6.3121,6.3124,6.3128,0,0,0,0,0,0,0,0,0,0,0,0,0,6.2811,6.2815,6.3005,6.3006,6.3007,6.3086,6.3087,6.3089,6.3051,6.3048,6.3046,6.3043,6.3119,6.3124,6.3129,0,0,0,0,0,0,0,0,0,0,0,0,0,6.2894,6.2816,6.3005,6.2998,6.2998,6.3086,6.3088,6.3089,6.3051,6.3048,6.3045,6.3042,6.3118,6.3123,6.3129,6.3227,0,0,6.3147,6.315,0,0,0,0,0,0,0,0,6.2889,6.2901,6.2998,6.2998,6.2999,6.3055,6.3047,6.3135,6.3052,6.3031,6.3044,6.3041,6.3101,6.3108,6.313,6.3231,6.3234,6.3148,6.3151,6.3154,6.3156,0,0,0,0,0,0,0,6.2884,6.2897,6.3037,6.2999,6.3,6.2989,6.2997,6.3064,6.3082,6.3032,6.303,6.304,6.31,6.3124,6.3131,6.3235,6.3148,6.3153,6.3157,6.3159,6.3424,6.3427,0,0,0,0,0,0,6.2879,6.2893,6.3034,6.3039,6.2936,6.2995,6.3004,6.304,6.3081,6.3084,6.3043,6.3038,6.3116,6.3124,6.3134,6.3254,6.3154,6.3159,6.3163,6.342,6.3424,6.3428,0,0,0,0,0,0,6.2875,6.2892,6.3031,6.2966,6.2983,6.3002,6.3042,6.3043,6.3067,6.3089,6.3091,6.3064,6.3113,6.3125,6.3205,6.3255,6.3162,6.3168,6.3416,6.3421,6.3426,6.3492,0,0,0,0,0,0,6.287,6.2891,6.2929,6.2967,6.2986,6.3103,6.3045,6.3047,6.3078,6.3073,6.311,6.3113,6.3112,6.3197,6.3211,6.3262,6.3172,6.3412,6.3418,6.3425,6.3486,6.3499,6.351,0,0,0,0,0,6.2863,6.2942,6.2931,6.2948,6.3035,6.3106,6.3117,6.3116,6.3082,6.3121,6.3135,6.3111,6.3248,6.3205,6.3221,6.3274,6.3408,6.3416,6.3424,6.348,6.3496,6.351,0,0,0,0,0,0,6.2905,6.2946,6.2935,6.3029,6.3065,6.3099,6.3147,6.3133,6.3177,6.317,6.3166,6.3174,6.3258,6.3274,6.3226,6.3373,6.3323,6.3334,6.336,6.3375,6.3388,6.3382,6.3177,0,0,0,0,0,6.2926,6.2983,6.3014,6.3094,6.3113,6.3128,6.3158,6.3156,6.3191,6.3205,6.3225,6.3259,6.331,6.3343,6.3391,6.3488,6.3496,6.3532,6.3545,6.3555,6.3565,6.362,6.3637,6.3454,6.3454,6.3454,0,0,6.2969,6.2998,6.3033,6.3104,6.3131,6.3189,6.314,6.3202,6.3245,6.3214,6.3292,6.3309,6.3346,6.3436,6.3476,6.3452,6.3618,6.3565,6.3573,6.3577,6.363,6.3647,6.3663,6.3459,6.3458,6.3457,0,0,6.3076,6.3104,6.3175,6.3205,6.3249,6.3258,6.3275,6.3313,6.3324,6.3403,6.3383,6.3432,6.3519,6.3548,6.3574,6.3697,6.3678,6.3712,6.3777,6.3831,6.3846,6.3858,6.3904,6.3921,6.3722,6.3722,6.3722,0,6.3123,6.3211,6.3213,6.3278,6.3311,6.3289,6.3361,6.3389,6.3445,6.3467,6.3439,6.3551,6.3574,6.3672,6.3703,6.3724,6.3743,6.3708,6.3844,6.3857,6.3869,6.3912,6.3929,6.3726,6.3726,6.3725,6.3725,0,6.3268,6.3329,6.3381,6.344,6.3478,6.3546,6.3557,6.3595,6.359,6.3603,6.3685,6.3713,6.3767,6.379,6.3784,6.3888,6.3872,6.3844,6.3794,6.389,6.3931,6.3948,6.3732,6.3731,6.373,6.3728,0,0,6.3402,6.3465,6.3484,6.3512,6.356,6.3607,6.3675,6.3732,6.3765,6.3805,6.3862,6.3938,6.3914,6.3944,6.3941,6.3988,6.4087,6.3955,6.3955,6.398,6.4206,6.4228,6.4247,6.4075,6.4078,6.408,6.4204,0,6.3514,6.3637,6.3642,6.3752,6.381,6.3793,6.3852,6.3888,6.3902,6.3952,6.3966,6.4022,6.3984,6.4003,6.4049,6.4065,6.4133,6.4056,6.4127,6.413,6.412,6.4268,6.4291,6.4406,6.422,6.4222,6.4224,0,6.3661,6.3711,6.3829,6.3873,6.3897,6.3951,6.4005,6.4053,6.4094,6.4101,6.4137,6.4128,6.4197,6.4145,6.424,6.4188,6.4218,6.4231,6.4235,6.4242,6.4183,6.4281,6.4442,6.446,6.4249,6.4247,6.4245,0,6.3751,6.3846,6.393,6.3954,6.4006,6.4045,6.4068,6.4106,6.4141,6.4188,6.4211,6.4264,6.4293,6.4334,6.434,6.4301,6.4437,6.4384,6.4445,6.4445,6.4474,6.4472,6.4644,6.4491,6.4491,6.4491,6.449,0,6.3876,6.3949,6.3971,6.4023,6.4105,6.411,6.419,6.421,6.4245,6.4299,6.4286,6.4337,6.4341,6.4394,6.4398,6.4479,6.4491,6.4498,6.4499,6.4501,6.45,6.452,6.4513,6.4495,6.4494,6.4493,6.4492,0,6.3989,6.4007,6.4097,6.4142,6.4155,6.4213,6.425,6.43,6.4314,6.4383,6.44,6.4421,6.4483,6.4494,6.4564,6.4568,6.4664,6.4655,6.4652,6.4651,6.4712,6.4707,6.4903,6.493,6.4759,6.476,6.4761,0,6.4069,6.4126,6.4178,6.4215,6.4242,6.4301,6.4339,6.4346,6.4385,6.4439,6.4482,6.4543,6.4592,6.4691,6.4712,6.4767,6.4761,6.4826,6.4768,6.477,6.4764,6.4761,6.4768,6.4837,6.4839,6.484,6.4841,0,6.4209,6.4216,6.4272,6.4332,6.4378,6.4424,6.4468,6.4499,6.4513,6.4557,6.4622,6.4661,6.4736,6.4797,6.4853,6.4875,6.4861,6.486,6.4877,6.4879,6.4876,6.4881,6.4683,6.4855,6.4854,6.4853,6.4852,6.4851,6.4309,6.436,6.4406,6.4469,6.4505,6.4547,6.4597,6.462,6.4675,6.4739,6.474,6.4812,6.4853,6.4927,6.4954,6.5009,6.4988,6.5012,6.5018,6.5025,6.5032,6.4867,6.5019,6.5018,6.5018,6.5018,6.5017,0,6.445,6.448,6.4539,6.4603,6.4654,6.464,6.4688,6.4731,6.4795,6.4836,6.4887,6.4963,6.5023,6.5051,6.511,6.5149,6.5145,6.5165,6.5162,6.5168,6.5046,6.5026,6.5168,6.5168,6.5168,6.5168,6.5168,6.5168,6.453,6.4617,6.463,6.4734,6.4763,6.4836,6.4865,6.4905,6.4938,6.5025,6.5077,6.5096,6.5132,6.5194,6.5249,6.5256,6.5278,6.5302,6.5306,6.5191,6.5176,6.5162,6.5143,6.5307,6.5307,6.5423,6.5424,6.5425]}]]